Time,TemperatureF,DewpointF,PressureIn,WindDirection,WindDirectionDegrees,WindSpeedMPH,WindSpeedGustMPH,Humidity,HourlyPrecipIn,Conditions,Clouds,dailyrainin,SolarRadiationWatts/m^2,SoftwareType,DateUTC
2013-04-30 00:00:00,51.7,48.1,29.48,SW,216,7.4,12.3,87,0.00,,,-99.99,1.0,HOBO +U30 +Weather +,2013-04-30 07:00:00,
2013-04-30 00:05:00,51.7,48.1,29.48,SW,220,5.6,8.9,87,0.00,,,-99.99,1.0,HOBO +U30 +Weather +,2013-04-30 07:05:00,
2013-04-30 00:10:00,51.6,48.0,29.48,SW,218,6.3,11.9,87,0.00,,,-99.99,1.0,HOBO +U30 +Weather +,2013-04-30 07:10:00,
2013-04-30 00:15:00,51.6,48.1,29.48,SW,219,6.3,13.0,87,0.00,,,-99.99,1.0,HOBO +U30 +Weather +,2013-04-30 07:15:00,
2013-04-30 00:20:00,51.5,48.0,29.48,SW,226,7.4,11.2,87,0.00,,,-99.99,1.0,HOBO +U30 +Weather +,2013-04-30 07:20:00,
2013-04-30 00:25:00,51.3,48.0,29.48,SW,223,8.5,11.9,88,0.00,,,-99.99,1.0,HOBO +U30 +Weather +,2013-04-30 07:25:00,
2013-04-30 00:30:00,51.2,48.0,29.48,SW,222,7.4,11.9,88,0.00,,,-99.99,1.0,HOBO +U30 +Weather +,2013-04-30 07:30:00,
2013-04-30 00:35:00,51.2,47.9,29.48,SW,225,7.4,12.3,88,0.00,,,-99.99,1.0,HOBO +U30 +Weather +,2013-04-30 07:35:00,
2013-04-30 00:40:00,51.0,47.9,29.48,SW,220,7.8,13.4,89,0.00,,,-99.99,1.0,HOBO +U30 +Weather +,2013-04-30 07:40:00,
2013-04-30 00:45:00,50.8,47.8,29.48,SW,222,8.5,13.4,89,0.00,,,-99.99,1.0,HOBO +U30 +Weather +,2013-04-30 07:45:00,
2013-04-30 00:50:00,50.6,47.7,29.48,SW,222,8.9,14.5,89,0.00,,,-99.99,1.0,HOBO +U30 +Weather +,2013-04-30 07:50:00,
2013-04-30 00:55:00,50.5,47.7,29.48,SW,222,7.4,13.4,89,0.00,,,-99.99,1.0,HOBO +U30 +Weather +,2013-04-30 07:55:00,
2013-04-30 01:00:00,50.7,47.8,29.48,SW,222,7.8,11.9,89,0.00,,,-99.99,1.0,HOBO +U30 +Weather +,2013-04-30 08:00:00,
2013-04-30 01:05:00,50.8,47.5,29.48,SW,223,7.4,12.3,88,0.00,,,-99.99,1.0,HOBO +U30 +Weather +,2013-04-30 08:05:00,
2013-04-30 01:10:00,50.7,47.5,29.48,SW,219,6.7,11.9,88,0.00,,,-99.99,1.0,HOBO +U30 +Weather +,2013-04-30 08:10:00,
2013-04-30 01:15:00,50.6,47.6,29.47,SW,215,5.6,9.6,89,0.00,,,-99.99,1.0,HOBO +U30 +Weather +,2013-04-30 08:15:00,
2013-04-30 01:20:00,50.5,47.7,29.47,SW,215,6.3,10.7,89,0.00,,,-99.99,1.0,HOBO +U30 +Weather +,2013-04-30 08:20:00,
2013-04-30 01:25:00,50.5,47.7,29.47,SW,220,7.4,11.9,89,0.00,,,-99.99,1.0,HOBO +U30 +Weather +,2013-04-30 08:25:00,
2013-04-30 01:30:00,50.5,47.6,29.48,SW,218,5.6,10.7,89,0.00,,,-99.99,1.0,HOBO +U30 +Weather +,2013-04-30 08:30:00,
2013-04-30 01:35:00,50.5,47.7,29.48,SW,219,5.6,10.1,90,0.00,,,-99.99,1.0,HOBO +U30 +Weather +,2013-04-30 08:35:00,
2013-04-30 01:40:00,50.5,47.8,29.48,SW,219,5.6,10.7,90,0.00,,,-99.99,1.0,HOBO +U30 +Weather +,2013-04-30 08:40:00,
2013-04-30 01:45:00,50.5,47.8,29.48,SW,220,5.6,9.6,90,0.00,,,-99.99,1.0,HOBO +U30 +Weather +,2013-04-30 08:45:00,
2013-04-30 01:50:00,50.6,47.9,29.48,SW,219,5.1,8.9,90,0.00,,,-99.99,1.0,HOBO +U30 +Weather +,2013-04-30 08:50:00,
2013-04-30 01:55:00,51.0,48.0,29.48,SW,223,6.3,11.2,89,0.00,,,-99.99,1.0,HOBO +U30 +Weather +,2013-04-30 08:55:00,
2013-04-30 02:00:00,51.3,48.0,29.48,SW,216,5.1,10.7,88,0.00,,,-99.99,1.0,HOBO +U30 +Weather +,2013-04-30 09:00:00,
2013-04-30 02:05:00,51.1,47.8,29.48,SW,222,5.6,9.6,88,0.00,,,-99.99,1.0,HOBO +U30 +Weather +,2013-04-30 09:05:00,
2013-04-30 02:10:00,50.9,47.9,29.48,SW,226,5.1,8.5,89,0.00,,,-99.99,1.0,HOBO +U30 +Weather +,2013-04-30 09:10:00,
2013-04-30 02:15:00,51.0,48.0,29.48,SW,218,6.7,10.7,89,0.00,,,-99.99,1.0,HOBO +U30 +Weather +,2013-04-30 09:15:00,
2013-04-30 02:20:00,51.0,47.8,29.48,SW,218,5.1,9.6,88,0.00,,,-99.99,1.0,HOBO +U30 +Weather +,2013-04-30 09:20:00,
2013-04-30 02:25:00,50.9,47.8,29.48,SSW,199,3.4,6.7,89,0.00,,,-99.99,1.0,HOBO +U30 +Weather +,2013-04-30 09:25:00,
2013-04-30 02:30:00,50.7,47.8,29.48,SSW,199,4.5,7.4,89,0.00,,,-99.99,1.0,HOBO +U30 +Weather +,2013-04-30 09:30:00,
2013-04-30 02:35:00,50.6,47.8,29.48,SSW,204,4.0,6.7,89,0.00,,,-99.99,1.0,HOBO +U30 +Weather +,2013-04-30 09:35:00,
2013-04-30 02:40:00,50.5,47.7,29.48,SSW,199,4.0,7.8,90,0.00,,,-99.99,1.0,HOBO +U30 +Weather +,2013-04-30 09:40:00,
2013-04-30 02:45:00,50.4,47.6,29.48,South,187,4.5,6.7,90,0.00,,,-99.99,1.0,HOBO +U30 +Weather +,2013-04-30 09:45:00,
2013-04-30 02:50:00,50.3,47.6,29.48,SSW,199,4.5,7.8,90,0.00,,,-99.99,1.0,HOBO +U30 +Weather +,2013-04-30 09:50:00,
2013-04-30 02:55:00,50.3,47.6,29.48,SSW,202,3.4,5.6,90,0.00,,,-99.99,1.0,HOBO +U30 +Weather +,2013-04-30 09:55:00,
2013-04-30 03:00:00,50.2,47.5,29.48,SSW,195,4.0,6.3,90,0.00,,,-99.99,1.0,HOBO +U30 +Weather +,2013-04-30 10:00:00,
2013-04-30 03:05:00,50.1,47.5,29.48,SSW,199,5.1,7.8,90,0.00,,,-99.99,1.0,HOBO +U30 +Weather +,2013-04-30 10:05:00,
2013-04-30 03:10:00,50.1,47.4,29.48,SSW,212,4.5,8.5,90,0.00,,,-99.99,1.0,HOBO +U30 +Weather +,2013-04-30 10:10:00,
2013-04-30 03:15:00,50.0,47.5,29.48,SSW,197,5.1,10.7,90,0.00,,,-99.99,1.0,HOBO +U30 +Weather +,2013-04-30 10:15:00,
2013-04-30 03:20:00,50.0,47.5,29.48,SSW,198,5.1,7.4,91,0.00,,,-99.99,1.0,HOBO +U30 +Weather +,2013-04-30 10:20:00,
2013-04-30 03:25:00,50.0,47.5,29.48,SSW,199,5.1,8.5,91,0.00,,,-99.99,1.0,HOBO +U30 +Weather +,2013-04-30 10:25:00,
2013-04-30 03:30:00,50.0,47.4,29.47,SSW,213,4.5,7.4,90,0.00,,,-99.99,1.0,HOBO +U30 +Weather +,2013-04-30 10:30:00,
2013-04-30 03:35:00,50.0,47.4,29.48,SSW,205,5.1,7.8,90,0.00,,,-99.99,1.0,HOBO +U30 +Weather +,2013-04-30 10:35:00,
2013-04-30 03:40:00,49.9,47.4,29.48,SW,225,5.1,8.5,90,0.00,,,-99.99,1.0,HOBO +U30 +Weather +,2013-04-30 10:40:00,
2013-04-30 03:45:00,50.0,47.4,29.48,SW,223,6.3,8.9,90,0.00,,,-99.99,1.0,HOBO +U30 +Weather +,2013-04-30 10:45:00,
2013-04-30 03:50:00,50.0,47.3,29.48,SW,222,5.6,8.9,90,0.00,,,-99.99,1.0,HOBO +U30 +Weather +,2013-04-30 10:50:00,
2013-04-30 03:55:00,50.0,47.3,29.48,SW,220,5.6,8.9,90,0.00,,,-99.99,1.0,HOBO +U30 +Weather +,2013-04-30 10:55:00,
2013-04-30 04:00:00,50.1,47.3,29.48,SW,218,5.1,9.6,90,0.00,,,-99.99,1.0,HOBO +U30 +Weather +,2013-04-30 11:00:00,
2013-04-30 04:05:00,50.2,47.3,29.48,SW,219,4.0,6.7,89,0.00,,,-99.99,1.0,HOBO +U30 +Weather +,2013-04-30 11:05:00,
2013-04-30 04:10:00,50.4,47.3,29.48,SW,220,3.4,6.3,89,0.00,,,-99.99,1.0,HOBO +U30 +Weather +,2013-04-30 11:10:00,
2013-04-30 04:15:00,50.5,47.2,29.48,SSW,213,2.2,4.5,88,0.00,,,-99.99,1.0,HOBO +U30 +Weather +,2013-04-30 11:15:00,
2013-04-30 04:20:00,50.7,47.3,29.48,SW,216,3.4,5.1,88,0.00,,,-99.99,1.0,HOBO +U30 +Weather +,2013-04-30 11:20:00,
2013-04-30 04:25:00,50.8,47.2,29.48,SW,215,3.4,5.1,87,0.00,,,-99.99,1.0,HOBO +U30 +Weather +,2013-04-30 11:25:00,
2013-04-30 04:30:00,51.2,47.3,29.48,SW,218,3.4,5.1,86,0.00,,,-99.99,1.0,HOBO +U30 +Weather +,2013-04-30 11:30:00,
2013-04-30 04:35:00,51.7,47.3,29.48,SW,227,2.9,5.1,84,0.00,,,-99.99,1.0,HOBO +U30 +Weather +,2013-04-30 11:35:00,
2013-04-30 04:40:00,51.7,47.0,29.48,SW,226,1.8,4.0,83,0.00,,,-99.99,1.0,HOBO +U30 +Weather +,2013-04-30 11:40:00,
2013-04-30 04:45:00,51.9,47.1,29.48,SW,225,1.8,3.4,83,0.00,,,-99.99,1.0,HOBO +U30 +Weather +,2013-04-30 11:45:00,
2013-04-30 04:50:00,52.0,47.0,29.48,SW,222,2.2,5.1,82,0.00,,,-99.99,1.0,HOBO +U30 +Weather +,2013-04-30 11:50:00,
2013-04-30 04:55:00,52.0,46.8,29.48,SW,225,3.4,5.6,82,0.00,,,-99.99,1.0,HOBO +U30 +Weather +,2013-04-30 11:55:00,
2013-04-30 05:00:00,51.8,46.7,29.48,SSW,212,2.2,5.1,82,0.00,,,-99.99,1.0,HOBO +U30 +Weather +,2013-04-30 12:00:00,
2013-04-30 05:05:00,51.5,46.6,29.48,SW,222,3.4,4.5,83,0.00,,,-99.99,1.0,HOBO +U30 +Weather +,2013-04-30 12:05:00,
2013-04-30 05:10:00,51.5,46.8,29.48,SW,222,2.9,5.6,83,0.00,,,-99.99,1.0,HOBO +U30 +Weather +,2013-04-30 12:10:00,
2013-04-30 05:15:00,51.5,46.8,29.48,SW,219,2.9,4.5,83,0.00,,,-99.99,1.0,HOBO +U30 +Weather +,2013-04-30 12:15:00,
2013-04-30 05:20:00,51.5,46.8,29.48,SW,222,3.4,5.6,83,0.00,,,-99.99,1.0,HOBO +U30 +Weather +,2013-04-30 12:20:00,
2013-04-30 05:25:00,50.9,46.7,29.48,SW,234,4.0,6.7,85,0.00,,,-99.99,1.0,HOBO +U30 +Weather +,2013-04-30 12:25:00,
2013-04-30 05:30:00,50.7,46.9,29.48,SW,230,4.5,7.4,86,0.00,,,-99.99,1.0,HOBO +U30 +Weather +,2013-04-30 12:30:00,
2013-04-30 05:35:00,50.5,46.8,29.48,SW,230,4.0,6.3,87,0.00,,,-99.99,1.0,HOBO +U30 +Weather +,2013-04-30 12:35:00,
2013-04-30 05:40:00,50.6,46.9,29.48,SW,223,4.0,6.3,87,0.00,,,-99.99,1.0,HOBO +U30 +Weather +,2013-04-30 12:40:00,
2013-04-30 05:45:00,50.4,46.6,29.48,SW,223,5.1,7.8,86,0.00,,,-99.99,1.0,HOBO +U30 +Weather +,2013-04-30 12:45:00,
2013-04-30 05:50:00,50.4,46.7,29.48,SW,227,5.6,10.7,87,0.00,,,-99.99,1.0,HOBO +U30 +Weather +,2013-04-30 12:50:00,
2013-04-30 05:55:00,50.3,46.7,29.48,SW,226,5.6,8.9,87,0.00,,,-99.99,1.0,HOBO +U30 +Weather +,2013-04-30 12:55:00,
2013-04-30 06:00:00,50.4,46.8,29.49,SW,226,5.6,8.9,87,0.00,,,-99.99,1.0,HOBO +U30 +Weather +,2013-04-30 13:00:00,
2013-04-30 06:05:00,50.5,46.9,29.49,SW,225,6.3,9.6,87,0.00,,,-99.99,1.0,HOBO +U30 +Weather +,2013-04-30 13:05:00,
2013-04-30 06:10:00,50.5,46.9,29.50,SW,226,6.3,10.1,87,0.00,,,-99.99,2.0,HOBO +U30 +Weather +,2013-04-30 13:10:00,
2013-04-30 06:15:00,50.5,47.0,29.50,SW,227,6.3,11.2,87,0.00,,,-99.99,3.0,HOBO +U30 +Weather +,2013-04-30 13:15:00,
2013-04-30 06:20:00,50.6,47.1,29.50,SW,225,4.5,8.5,87,0.00,,,-99.99,6.0,HOBO +U30 +Weather +,2013-04-30 13:20:00,
2013-04-30 06:25:00,50.5,47.2,29.50,SW,226,5.1,8.5,88,0.00,,,-99.99,9.0,HOBO +U30 +Weather +,2013-04-30 13:25:00,
2013-04-30 06:30:00,50.6,47.5,29.51,SW,227,5.1,8.9,89,0.00,,,-99.99,23.0,HOBO +U30 +Weather +,2013-04-30 13:30:00,
2013-04-30 06:35:00,50.8,47.8,29.51,SW,218,3.4,6.3,89,0.00,,,-99.99,37.0,HOBO +U30 +Weather +,2013-04-30 13:35:00,
2013-04-30 06:40:00,50.7,47.7,29.50,SW,222,4.0,6.7,89,0.00,,,-99.99,46.0,HOBO +U30 +Weather +,2013-04-30 13:40:00,
2013-04-30 06:45:00,50.9,47.8,29.50,SW,218,3.4,6.3,89,0.00,,,-99.99,33.0,HOBO +U30 +Weather +,2013-04-30 13:45:00,
2013-04-30 06:50:00,50.8,47.7,29.51,SW,223,3.4,5.6,88,0.00,,,-99.99,28.0,HOBO +U30 +Weather +,2013-04-30 13:50:00,
2013-04-30 06:55:00,50.9,47.8,29.51,SSW,209,2.2,4.5,88,0.00,,,-99.99,34.0,HOBO +U30 +Weather +,2013-04-30 13:55:00,
2013-04-30 07:00:00,51.1,47.9,29.51,SSW,195,2.2,4.0,88,0.00,,,-99.99,49.0,HOBO +U30 +Weather +,2013-04-30 14:00:00,
2013-04-30 07:05:00,51.5,48.1,29.51,South,191,3.4,4.5,87,0.00,,,-99.99,53.0,HOBO +U30 +Weather +,2013-04-30 14:05:00,
2013-04-30 07:10:00,51.9,48.3,29.51,South,191,1.8,4.5,87,0.00,,,-99.99,138.0,HOBO +U30 +Weather +,2013-04-30 14:10:00,
2013-04-30 07:15:00,52.8,48.9,29.51,South,177,1.1,4.0,86,0.00,,,-99.99,46.0,HOBO +U30 +Weather +,2013-04-30 14:15:00,
2013-04-30 07:20:00,52.6,48.4,29.51,SSE,164,0.7,2.2,85,0.00,,,-99.99,52.0,HOBO +U30 +Weather +,2013-04-30 14:20:00,
2013-04-30 07:25:00,53.1,48.7,29.52,SSE,164,0.7,2.2,84,0.00,,,-99.99,164.0,HOBO +U30 +Weather +,2013-04-30 14:25:00,
2013-04-30 07:30:00,53.9,49.0,29.52,South,173,1.8,2.9,83,0.00,,,-99.99,134.0,HOBO +U30 +Weather +,2013-04-30 14:30:00,
2013-04-30 07:35:00,54.1,48.7,29.52,South,177,1.1,2.2,81,0.00,,,-99.99,58.0,HOBO +U30 +Weather +,2013-04-30 14:35:00,
2013-04-30 07:40:00,53.9,48.3,29.52,South,178,1.1,2.9,81,0.00,,,-99.99,68.0,HOBO +U30 +Weather +,2013-04-30 14:40:00,
2013-04-30 07:45:00,54.1,48.5,29.52,SW,216,2.2,4.5,81,0.00,,,-99.99,91.0,HOBO +U30 +Weather +,2013-04-30 14:45:00,
2013-04-30 07:50:00,54.7,48.8,29.52,SW,215,2.2,4.5,80,0.00,,,-99.99,203.0,HOBO +U30 +Weather +,2013-04-30 14:50:00,
2013-04-30 07:55:00,55.8,49.4,29.51,SW,225,2.9,5.6,78,0.00,,,-99.99,277.0,HOBO +U30 +Weather +,2013-04-30 14:55:00,
2013-04-30 08:00:00,55.2,48.4,29.52,SW,225,4.5,6.7,77,0.00,,,-99.99,289.0,HOBO +U30 +Weather +,2013-04-30 15:00:00,
2013-04-30 08:05:00,55.1,48.4,29.52,SW,222,4.0,8.5,77,0.00,,,-99.99,303.0,HOBO +U30 +Weather +,2013-04-30 15:05:00,
2013-04-30 08:10:00,55.1,48.6,29.52,SW,227,5.1,8.9,78,0.00,,,-99.99,318.0,HOBO +U30 +Weather +,2013-04-30 15:10:00,
2013-04-30 08:15:00,55.1,48.8,29.52,SW,229,5.6,8.5,79,0.00,,,-99.99,332.0,HOBO +U30 +Weather +,2013-04-30 15:15:00,
2013-04-30 08:20:00,54.9,48.9,29.52,SW,223,6.3,11.2,80,0.00,,,-99.99,347.0,HOBO +U30 +Weather +,2013-04-30 15:20:00,
2013-04-30 08:25:00,55.4,49.5,29.52,SW,222,5.1,8.9,80,0.00,,,-99.99,361.0,HOBO +U30 +Weather +,2013-04-30 15:25:00,
2013-04-30 08:30:00,55.0,49.0,29.53,SW,226,6.3,10.7,80,0.00,,,-99.99,374.0,HOBO +U30 +Weather +,2013-04-30 15:30:00,
2013-04-30 08:35:00,56.2,50.2,29.53,SW,223,5.1,8.9,80,0.00,,,-99.99,391.0,HOBO +U30 +Weather +,2013-04-30 15:35:00,
2013-04-30 08:40:00,55.5,49.3,29.53,SW,225,6.3,9.6,79,0.00,,,-99.99,404.0,HOBO +U30 +Weather +,2013-04-30 15:40:00,
2013-04-30 08:45:00,55.5,49.6,29.53,SW,230,6.3,10.1,80,0.00,,,-99.99,422.0,HOBO +U30 +Weather +,2013-04-30 15:45:00,
2013-04-30 08:50:00,55.8,49.3,29.53,SW,220,6.3,11.9,78,0.00,,,-99.99,437.0,HOBO +U30 +Weather +,2013-04-30 15:50:00,
2013-04-30 08:55:00,56.0,49.3,29.53,SW,223,6.3,10.1,78,0.00,,,-99.99,452.0,HOBO +U30 +Weather +,2013-04-30 15:55:00,
2013-04-30 09:00:00,56.6,49.7,29.53,SW,230,5.6,8.5,77,0.00,,,-99.99,468.0,HOBO +U30 +Weather +,2013-04-30 16:00:00,
2013-04-30 09:05:00,56.8,49.3,29.53,SW,232,5.6,9.6,76,0.00,,,-99.99,483.0,HOBO +U30 +Weather +,2013-04-30 16:05:00,
2013-04-30 09:10:00,57.8,49.9,29.54,SW,229,5.1,9.6,74,0.00,,,-99.99,501.0,HOBO +U30 +Weather +,2013-04-30 16:10:00,
2013-04-30 09:15:00,57.8,49.4,29.53,SW,223,6.7,11.2,73,0.00,,,-99.99,514.0,HOBO +U30 +Weather +,2013-04-30 16:15:00,
2013-04-30 09:20:00,58.5,49.4,29.54,SW,226,6.3,8.5,71,0.00,,,-99.99,528.0,HOBO +U30 +Weather +,2013-04-30 16:20:00,
2013-04-30 09:25:00,59.4,49.6,29.53,SW,229,4.5,7.4,69,0.00,,,-99.99,543.0,HOBO +U30 +Weather +,2013-04-30 16:25:00,
2013-04-30 09:30:00,60.4,49.7,29.54,SW,218,4.5,7.4,67,0.00,,,-99.99,558.0,HOBO +U30 +Weather +,2013-04-30 16:30:00,
2013-04-30 09:35:00,61.7,50.5,29.54,SSW,208,3.4,7.4,66,0.00,,,-99.99,573.0,HOBO +U30 +Weather +,2013-04-30 16:35:00,
2013-04-30 09:40:00,63.5,50.9,29.53,SSW,209,2.2,5.1,63,0.00,,,-99.99,588.0,HOBO +U30 +Weather +,2013-04-30 16:40:00,
2013-04-30 09:45:00,63.8,50.0,29.53,SSW,197,2.9,6.3,60,0.00,,,-99.99,603.0,HOBO +U30 +Weather +,2013-04-30 16:45:00,
2013-04-30 09:50:00,63.3,49.2,29.53,SW,220,4.0,7.4,60,0.00,,,-99.99,617.0,HOBO +U30 +Weather +,2013-04-30 16:50:00,
2013-04-30 09:55:00,64.3,50.1,29.53,SSW,195,3.4,6.7,59,0.00,,,-99.99,629.0,HOBO +U30 +Weather +,2013-04-30 16:55:00,
2013-04-30 10:00:00,64.4,49.4,29.53,SW,219,4.0,7.4,58,0.00,,,-99.99,641.0,HOBO +U30 +Weather +,2013-04-30 17:00:00,
2013-04-30 10:05:00,64.0,49.2,29.54,SW,222,5.1,8.9,58,0.00,,,-99.99,649.0,HOBO +U30 +Weather +,2013-04-30 17:05:00,
2013-04-30 10:10:00,63.6,50.2,29.53,SW,234,5.1,8.5,61,0.00,,,-99.99,666.0,HOBO +U30 +Weather +,2013-04-30 17:10:00,
2013-04-30 10:15:00,62.7,49.5,29.53,SW,226,5.1,10.1,62,0.00,,,-99.99,677.0,HOBO +U30 +Weather +,2013-04-30 17:15:00,
2013-04-30 10:20:00,61.6,49.7,29.53,SW,222,7.4,11.9,64,0.00,,,-99.99,694.0,HOBO +U30 +Weather +,2013-04-30 17:20:00,
2013-04-30 10:25:00,61.6,50.3,29.53,SW,227,7.4,13.0,66,0.00,,,-99.99,679.0,HOBO +U30 +Weather +,2013-04-30 17:25:00,
2013-04-30 10:30:00,61.0,49.7,29.54,SW,227,7.4,11.2,66,0.00,,,-99.99,677.0,HOBO +U30 +Weather +,2013-04-30 17:30:00,
2013-04-30 10:35:00,61.0,49.8,29.54,SW,229,7.4,13.0,66,0.00,,,-99.99,713.0,HOBO +U30 +Weather +,2013-04-30 17:35:00,
2013-04-30 10:40:00,62.2,50.2,29.54,SW,225,7.4,11.2,64,0.00,,,-99.99,704.0,HOBO +U30 +Weather +,2013-04-30 17:40:00,
2013-04-30 10:45:00,61.3,49.0,29.54,SW,220,8.9,12.3,63,0.00,,,-99.99,724.0,HOBO +U30 +Weather +,2013-04-30 17:45:00,
2013-04-30 10:50:00,62.2,49.3,29.54,SW,225,8.5,12.3,62,0.00,,,-99.99,721.0,HOBO +U30 +Weather +,2013-04-30 17:50:00,
2013-04-30 10:55:00,62.6,48.8,29.54,SW,225,7.4,11.2,60,0.00,,,-99.99,726.0,HOBO +U30 +Weather +,2013-04-30 17:55:00,
2013-04-30 11:00:00,62.9,48.8,29.54,SW,219,7.4,12.3,59,0.00,,,-99.99,727.0,HOBO +U30 +Weather +,2013-04-30 18:00:00,
2013-04-30 11:05:00,62.5,48.2,29.54,SW,223,8.5,11.9,59,0.00,,,-99.99,757.0,HOBO +U30 +Weather +,2013-04-30 18:05:00,
2013-04-30 11:10:00,62.9,48.5,29.54,SW,223,7.8,12.3,59,0.00,,,-99.99,764.0,HOBO +U30 +Weather +,2013-04-30 18:10:00,
2013-04-30 11:15:00,63.0,48.7,29.54,SW,226,7.4,13.4,59,0.00,,,-99.99,789.0,HOBO +U30 +Weather +,2013-04-30 18:15:00,
2013-04-30 11:20:00,64.0,49.6,29.54,SW,226,7.8,12.3,59,0.00,,,-99.99,801.0,HOBO +U30 +Weather +,2013-04-30 18:20:00,
2013-04-30 11:25:00,63.1,49.0,29.54,SW,227,8.5,12.3,59,0.00,,,-99.99,783.0,HOBO +U30 +Weather +,2013-04-30 18:25:00,
2013-04-30 11:30:00,62.7,49.1,29.54,SW,222,9.6,14.1,61,0.00,,,-99.99,798.0,HOBO +U30 +Weather +,2013-04-30 18:30:00,
2013-04-30 11:35:00,64.1,49.6,29.54,SW,225,7.8,13.0,59,0.00,,,-99.99,803.0,HOBO +U30 +Weather +,2013-04-30 18:35:00,
2013-04-30 11:40:00,63.6,49.1,29.54,SW,226,8.5,13.4,59,0.00,,,-99.99,823.0,HOBO +U30 +Weather +,2013-04-30 18:40:00,
2013-04-30 11:45:00,63.0,48.6,29.54,SW,226,8.9,14.5,59,0.00,,,-99.99,829.0,HOBO +U30 +Weather +,2013-04-30 18:45:00,
2013-04-30 11:50:00,63.5,49.5,29.54,SW,225,8.5,12.3,60,0.00,,,-99.99,834.0,HOBO +U30 +Weather +,2013-04-30 18:50:00,
2013-04-30 11:55:00,62.2,48.3,29.54,SW,227,8.9,14.5,60,0.00,,,-99.99,838.0,HOBO +U30 +Weather +,2013-04-30 18:55:00,
2013-04-30 12:00:00,62.8,48.4,29.54,SW,229,7.8,14.5,59,0.00,,,-99.99,842.0,HOBO +U30 +Weather +,2013-04-30 19:00:00,
2013-04-30 12:05:00,63.6,49.6,29.54,SW,226,8.9,15.9,60,0.00,,,-99.99,851.0,HOBO +U30 +Weather +,2013-04-30 19:05:00,
2013-04-30 12:10:00,63.9,49.5,29.54,SW,227,9.6,15.9,59,0.00,,,-99.99,851.0,HOBO +U30 +Weather +,2013-04-30 19:10:00,
2013-04-30 12:15:00,63.9,49.4,29.54,SW,226,9.6,13.4,59,0.00,,,-99.99,857.0,HOBO +U30 +Weather +,2013-04-30 19:15:00,
2013-04-30 12:20:00,63.6,48.8,29.53,SW,225,10.7,18.1,58,0.00,,,-99.99,862.0,HOBO +U30 +Weather +,2013-04-30 19:20:00,
2013-04-30 12:25:00,65.0,49.3,29.53,SW,226,9.6,18.6,56,0.00,,,-99.99,864.0,HOBO +U30 +Weather +,2013-04-30 19:25:00,
2013-04-30 12:30:00,62.7,47.6,29.53,SW,222,11.9,18.6,57,0.00,,,-99.99,863.0,HOBO +U30 +Weather +,2013-04-30 19:30:00,
2013-04-30 12:35:00,62.7,48.2,29.53,SW,226,11.9,18.1,59,0.00,,,-99.99,857.0,HOBO +U30 +Weather +,2013-04-30 19:35:00,
2013-04-30 12:40:00,62.9,48.3,29.53,SW,223,11.9,18.6,58,0.00,,,-99.99,864.0,HOBO +U30 +Weather +,2013-04-30 19:40:00,
2013-04-30 12:45:00,63.3,48.5,29.53,SW,225,11.2,17.4,58,0.00,,,-99.99,871.0,HOBO +U30 +Weather +,2013-04-30 19:45:00,
2013-04-30 12:50:00,62.5,47.6,29.53,SW,225,11.2,17.0,58,0.00,,,-99.99,871.0,HOBO +U30 +Weather +,2013-04-30 19:50:00,
2013-04-30 12:55:00,62.7,48.8,29.53,SW,226,12.3,17.4,60,0.00,,,-99.99,873.0,HOBO +U30 +Weather +,2013-04-30 19:55:00,
2013-04-30 13:00:00,62.3,48.2,29.53,SW,225,12.3,17.0,59,0.00,,,-99.99,868.0,HOBO +U30 +Weather +,2013-04-30 20:00:00,
2013-04-30 13:05:00,62.1,48.1,29.53,SW,220,13.4,20.4,60,0.00,,,-99.99,872.0,HOBO +U30 +Weather +,2013-04-30 20:05:00,
2013-04-30 13:10:00,62.0,47.9,29.53,SW,225,14.1,20.8,59,0.00,,,-99.99,871.0,HOBO +U30 +Weather +,2013-04-30 20:10:00,
2013-04-30 13:15:00,61.9,47.5,29.52,SW,225,12.3,19.2,59,0.00,,,-99.99,874.0,HOBO +U30 +Weather +,2013-04-30 20:15:00,
2013-04-30 13:20:00,61.5,47.8,29.52,SW,232,13.4,20.4,60,0.00,,,-99.99,866.0,HOBO +U30 +Weather +,2013-04-30 20:20:00,
2013-04-30 13:25:00,62.4,48.4,29.52,SW,230,12.3,19.2,60,0.00,,,-99.99,866.0,HOBO +U30 +Weather +,2013-04-30 20:25:00,
2013-04-30 13:30:00,62.3,47.9,29.52,SW,230,11.9,20.4,59,0.00,,,-99.99,866.0,HOBO +U30 +Weather +,2013-04-30 20:30:00,
2013-04-30 13:35:00,61.9,48.2,29.52,SW,232,13.0,21.5,60,0.00,,,-99.99,863.0,HOBO +U30 +Weather +,2013-04-30 20:35:00,
2013-04-30 13:40:00,61.3,47.9,29.52,SW,229,14.5,19.7,61,0.00,,,-99.99,862.0,HOBO +U30 +Weather +,2013-04-30 20:40:00,
2013-04-30 13:45:00,61.8,48.5,29.52,SW,227,13.0,19.2,61,0.00,,,-99.99,858.0,HOBO +U30 +Weather +,2013-04-30 20:45:00,
2013-04-30 13:50:00,62.9,49.1,29.52,SW,225,12.3,18.1,60,0.00,,,-99.99,854.0,HOBO +U30 +Weather +,2013-04-30 20:50:00,
2013-04-30 13:55:00,62.5,48.4,29.52,SW,226,13.0,20.4,59,0.00,,,-99.99,853.0,HOBO +U30 +Weather +,2013-04-30 20:55:00,
2013-04-30 14:00:00,62.1,48.1,29.52,SW,226,13.0,18.6,60,0.00,,,-99.99,849.0,HOBO +U30 +Weather +,2013-04-30 21:00:00,
2013-04-30 14:05:00,63.0,49.1,29.52,SW,227,13.0,20.8,60,0.00,,,-99.99,842.0,HOBO +U30 +Weather +,2013-04-30 21:05:00,
2013-04-30 14:10:00,62.1,48.3,29.52,SW,227,13.0,19.7,60,0.00,,,-99.99,837.0,HOBO +U30 +Weather +,2013-04-30 21:10:00,
2013-04-30 14:15:00,62.5,48.5,29.51,SW,227,12.3,19.7,60,0.00,,,-99.99,833.0,HOBO +U30 +Weather +,2013-04-30 21:15:00,
2013-04-30 14:20:00,63.4,49.3,29.51,SW,232,12.3,18.6,60,0.00,,,-99.99,828.0,HOBO +U30 +Weather +,2013-04-30 21:20:00,
2013-04-30 14:25:00,62.9,48.5,29.51,SW,225,12.3,19.7,59,0.00,,,-99.99,823.0,HOBO +U30 +Weather +,2013-04-30 21:25:00,
2013-04-30 14:30:00,62.4,47.8,29.51,SW,227,13.0,20.8,58,0.00,,,-99.99,814.0,HOBO +U30 +Weather +,2013-04-30 21:30:00,
2013-04-30 14:35:00,62.6,48.7,29.51,SW,225,13.4,19.7,60,0.00,,,-99.99,803.0,HOBO +U30 +Weather +,2013-04-30 21:35:00,
2013-04-30 14:40:00,62.5,48.1,29.51,SW,225,13.0,19.7,59,0.00,,,-99.99,794.0,HOBO +U30 +Weather +,2013-04-30 21:40:00,
2013-04-30 14:45:00,61.9,47.8,29.51,SW,223,14.1,20.8,59,0.00,,,-99.99,789.0,HOBO +U30 +Weather +,2013-04-30 21:45:00,
2013-04-30 14:50:00,63.6,49.2,29.51,SW,227,11.9,19.2,59,0.00,,,-99.99,781.0,HOBO +U30 +Weather +,2013-04-30 21:50:00,
2013-04-30 14:55:00,63.0,48.3,29.51,SW,233,12.3,20.8,58,0.00,,,-99.99,773.0,HOBO +U30 +Weather +,2013-04-30 21:55:00,
2013-04-30 15:00:00,62.6,48.3,29.51,SW,227,12.3,19.2,59,0.00,,,-99.99,763.0,HOBO +U30 +Weather +,2013-04-30 22:00:00,
2013-04-30 15:05:00,64.4,48.8,29.50,SW,230,9.6,15.2,56,0.00,,,-99.99,757.0,HOBO +U30 +Weather +,2013-04-30 22:05:00,
2013-04-30 15:10:00,63.3,47.9,29.50,SW,226,13.0,20.4,57,0.00,,,-99.99,748.0,HOBO +U30 +Weather +,2013-04-30 22:10:00,
2013-04-30 15:15:00,63.0,47.8,29.50,SW,219,13.0,19.7,57,0.00,,,-99.99,741.0,HOBO +U30 +Weather +,2013-04-30 22:15:00,
2013-04-30 15:20:00,63.4,48.0,29.50,SW,226,10.7,19.2,57,0.00,,,-99.99,728.0,HOBO +U30 +Weather +,2013-04-30 22:20:00,
2013-04-30 15:25:00,63.3,48.2,29.50,SW,225,12.3,19.2,57,0.00,,,-99.99,721.0,HOBO +U30 +Weather +,2013-04-30 22:25:00,
2013-04-30 15:30:00,63.3,48.1,29.50,SW,234,11.2,17.4,57,0.00,,,-99.99,711.0,HOBO +U30 +Weather +,2013-04-30 22:30:00,
2013-04-30 15:35:00,62.9,47.9,29.49,SW,226,12.3,19.2,57,0.00,,,-99.99,698.0,HOBO +U30 +Weather +,2013-04-30 22:35:00,
2013-04-30 15:40:00,62.8,47.7,29.49,SW,227,11.9,17.0,57,0.00,,,-99.99,688.0,HOBO +U30 +Weather +,2013-04-30 22:40:00,
2013-04-30 15:45:00,62.2,47.6,29.49,SW,226,13.4,21.5,58,0.00,,,-99.99,679.0,HOBO +U30 +Weather +,2013-04-30 22:45:00,
2013-04-30 15:50:00,62.3,47.8,29.49,SW,225,13.0,20.4,58,0.00,,,-99.99,672.0,HOBO +U30 +Weather +,2013-04-30 22:50:00,
2013-04-30 15:55:00,62.0,47.6,29.49,SW,223,13.4,19.7,59,0.00,,,-99.99,658.0,HOBO +U30 +Weather +,2013-04-30 22:55:00,
2013-04-30 16:00:00,61.3,47.3,29.49,SW,227,14.5,20.8,60,0.00,,,-99.99,604.0,HOBO +U30 +Weather +,2013-04-30 23:00:00,
2013-04-30 16:05:00,60.7,46.9,29.49,SW,232,14.5,20.4,60,0.00,,,-99.99,599.0,HOBO +U30 +Weather +,2013-04-30 23:05:00,
2013-04-30 16:10:00,61.8,47.8,29.49,SW,229,13.4,21.5,60,0.00,,,-99.99,604.0,HOBO +U30 +Weather +,2013-04-30 23:10:00,
2013-04-30 16:15:00,62.0,47.4,29.49,SW,229,12.3,19.7,58,0.00,,,-99.99,608.0,HOBO +U30 +Weather +,2013-04-30 23:15:00,
2013-04-30 16:20:00,62.3,47.6,29.49,SW,230,12.3,20.4,58,0.00,,,-99.99,591.0,HOBO +U30 +Weather +,2013-04-30 23:20:00,
2013-04-30 16:25:00,62.0,47.2,29.49,SW,230,12.3,18.6,58,0.00,,,-99.99,586.0,HOBO +U30 +Weather +,2013-04-30 23:25:00,
2013-04-30 16:30:00,60.8,46.8,29.49,SW,220,15.2,23.0,60,0.00,,,-99.99,564.0,HOBO +U30 +Weather +,2013-04-30 23:30:00,
2013-04-30 16:35:00,61.3,47.1,29.48,SW,223,12.3,21.9,59,0.00,,,-99.99,556.0,HOBO +U30 +Weather +,2013-04-30 23:35:00,
2013-04-30 16:40:00,61.3,47.3,29.49,SW,230,13.4,21.9,60,0.00,,,-99.99,542.0,HOBO +U30 +Weather +,2013-04-30 23:40:00,
2013-04-30 16:45:00,61.1,47.0,29.48,SW,227,13.0,19.2,59,0.00,,,-99.99,526.0,HOBO +U30 +Weather +,2013-04-30 23:45:00,
2013-04-30 16:50:00,59.7,46.4,29.48,SW,222,14.5,23.0,61,0.00,,,-99.99,519.0,HOBO +U30 +Weather +,2013-04-30 23:50:00,
2013-04-30 16:55:00,60.1,47.1,29.48,SW,227,13.4,20.4,62,0.00,,,-99.99,494.0,HOBO +U30 +Weather +,2013-04-30 23:55:00,
2013-04-30 17:00:00,60.1,47.0,29.48,SW,229,13.0,18.6,62,0.00,,,-99.99,463.0,HOBO +U30 +Weather +,2013-05-01 00:00:00,
2013-04-30 17:05:00,59.5,46.7,29.48,SW,225,14.1,19.7,62,0.00,,,-99.99,453.0,HOBO +U30 +Weather +,2013-05-01 00:05:00,
2013-04-30 17:10:00,60.3,47.5,29.49,SW,220,13.0,19.7,62,0.00,,,-99.99,424.0,HOBO +U30 +Weather +,2013-05-01 00:10:00,
2013-04-30 17:15:00,60.1,47.3,29.49,SW,226,12.3,19.2,62,0.00,,,-99.99,439.0,HOBO +U30 +Weather +,2013-05-01 00:15:00,
2013-04-30 17:20:00,60.6,47.3,29.49,SW,230,10.7,17.0,61,0.00,,,-99.99,421.0,HOBO +U30 +Weather +,2013-05-01 00:20:00,
2013-04-30 17:25:00,60.8,47.5,29.49,SW,234,8.9,15.9,61,0.00,,,-99.99,413.0,HOBO +U30 +Weather +,2013-05-01 00:25:00,
2013-04-30 17:30:00,61.1,47.5,29.49,SW,232,7.8,13.0,60,0.00,,,-99.99,403.0,HOBO +U30 +Weather +,2013-05-01 00:30:00,
2013-04-30 17:35:00,60.5,46.9,29.49,SW,230,7.8,13.4,60,0.00,,,-99.99,382.0,HOBO +U30 +Weather +,2013-05-01 00:35:00,
2013-04-30 17:40:00,61.1,47.7,29.49,SW,223,7.8,13.4,61,0.00,,,-99.99,367.0,HOBO +U30 +Weather +,2013-05-01 00:40:00,
2013-04-30 17:45:00,59.8,46.8,29.49,SW,230,10.7,16.3,61,0.00,,,-99.99,359.0,HOBO +U30 +Weather +,2013-05-01 00:45:00,
2013-04-30 17:50:00,60.3,47.7,29.49,SW,229,11.2,17.4,63,0.00,,,-99.99,338.0,HOBO +U30 +Weather +,2013-05-01 00:50:00,
2013-04-30 17:55:00,60.2,47.3,29.49,SW,229,10.7,17.4,62,0.00,,,-99.99,302.0,HOBO +U30 +Weather +,2013-05-01 00:55:00,
2013-04-30 18:00:00,59.2,46.8,29.49,SW,226,12.3,18.1,63,0.00,,,-99.99,292.0,HOBO +U30 +Weather +,2013-05-01 01:00:00,
2013-04-30 18:05:00,59.7,47.2,29.49,SW,227,10.1,15.9,63,0.00,,,-99.99,277.0,HOBO +U30 +Weather +,2013-05-01 01:05:00,
2013-04-30 18:10:00,59.4,46.9,29.49,SW,232,9.6,15.2,63,0.00,,,-99.99,253.0,HOBO +U30 +Weather +,2013-05-01 01:10:00,
2013-04-30 18:15:00,59.9,47.4,29.49,SW,229,8.9,13.4,63,0.00,,,-99.99,256.0,HOBO +U30 +Weather +,2013-05-01 01:15:00,
2013-04-30 18:20:00,60.0,47.3,29.49,SW,225,9.6,14.5,62,0.00,,,-99.99,246.0,HOBO +U30 +Weather +,2013-05-01 01:20:00,
2013-04-30 18:25:00,59.7,47.0,29.49,SW,232,9.6,13.4,62,0.00,,,-99.99,239.0,HOBO +U30 +Weather +,2013-05-01 01:25:00,
2013-04-30 18:30:00,59.5,46.9,29.49,SW,227,8.9,14.1,63,0.00,,,-99.99,213.0,HOBO +U30 +Weather +,2013-05-01 01:30:00,
2013-04-30 18:35:00,59.2,46.9,29.49,SW,229,10.1,16.3,63,0.00,,,-99.99,203.0,HOBO +U30 +Weather +,2013-05-01 01:35:00,
2013-04-30 18:40:00,58.9,46.7,29.49,SW,226,10.1,15.9,63,0.00,,,-99.99,191.0,HOBO +U30 +Weather +,2013-05-01 01:40:00,
2013-04-30 18:45:00,58.7,46.6,29.49,SW,227,10.1,14.5,64,0.00,,,-99.99,177.0,HOBO +U30 +Weather +,2013-05-01 01:45:00,
2013-04-30 18:50:00,58.5,46.6,29.49,SW,232,10.1,15.9,64,0.00,,,-99.99,161.0,HOBO +U30 +Weather +,2013-05-01 01:50:00,
2013-04-30 18:55:00,58.2,46.6,29.49,SW,232,10.7,15.9,65,0.00,,,-99.99,147.0,HOBO +U30 +Weather +,2013-05-01 01:55:00,
2013-04-30 19:00:00,57.7,46.3,29.49,SW,233,11.2,16.3,65,0.00,,,-99.99,132.0,HOBO +U30 +Weather +,2013-05-01 02:00:00,
2013-04-30 19:05:00,57.6,46.5,29.49,SW,227,10.7,17.0,66,0.00,,,-99.99,118.0,HOBO +U30 +Weather +,2013-05-01 02:05:00,
2013-04-30 19:10:00,57.5,46.4,29.49,SW,232,8.9,15.2,66,0.00,,,-99.99,96.0,HOBO +U30 +Weather +,2013-05-01 02:10:00,
2013-04-30 19:15:00,56.7,46.0,29.49,SW,232,10.1,17.0,67,0.00,,,-99.99,67.0,HOBO +U30 +Weather +,2013-05-01 02:15:00,
2013-04-30 19:20:00,56.5,46.3,29.49,SW,227,9.6,14.5,68,0.00,,,-99.99,28.0,HOBO +U30 +Weather +,2013-05-01 02:20:00,
2013-04-30 19:25:00,56.2,46.3,29.49,SW,233,10.1,14.5,69,0.00,,,-99.99,23.0,HOBO +U30 +Weather +,2013-05-01 02:25:00,
2013-04-30 19:30:00,56.2,46.4,29.49,SW,230,10.1,14.5,69,0.00,,,-99.99,21.0,HOBO +U30 +Weather +,2013-05-01 02:30:00,
2013-04-30 19:35:00,56.1,46.3,29.49,SW,236,9.6,15.2,69,0.00,,,-99.99,18.0,HOBO +U30 +Weather +,2013-05-01 02:35:00,
2013-04-30 19:40:00,56.0,46.3,29.49,SW,232,8.5,13.4,69,0.00,,,-99.99,13.0,HOBO +U30 +Weather +,2013-05-01 02:40:00,
2013-04-30 19:45:00,55.9,46.3,29.49,SW,232,8.9,13.4,70,0.00,,,-99.99,11.0,HOBO +U30 +Weather +,2013-05-01 02:45:00,
2013-04-30 19:50:00,55.9,46.3,29.49,SW,234,8.9,13.4,70,0.00,,,-99.99,7.0,HOBO +U30 +Weather +,2013-05-01 02:50:00,
2013-04-30 19:55:00,55.9,46.4,29.49,SW,230,8.9,13.0,70,0.00,,,-99.99,3.0,HOBO +U30 +Weather +,2013-05-01 02:55:00,
2013-04-30 20:00:00,55.6,46.3,29.49,SW,233,7.8,11.9,70,0.00,,,-99.99,2.0,HOBO +U30 +Weather +,2013-05-01 03:00:00,
2013-04-30 20:05:00,55.5,46.3,29.49,SW,232,7.8,12.3,71,0.00,,,-99.99,1.0,HOBO +U30 +Weather +,2013-05-01 03:05:00,
2013-04-30 20:10:00,55.4,46.2,29.50,SW,236,7.8,13.0,71,0.00,,,-99.99,1.0,HOBO +U30 +Weather +,2013-05-01 03:10:00,
2013-04-30 20:15:00,55.2,46.3,29.50,SW,236,7.4,13.4,71,0.00,,,-99.99,1.0,HOBO +U30 +Weather +,2013-05-01 03:15:00,
2013-04-30 20:20:00,55.2,46.3,29.50,SW,234,7.8,11.2,71,0.00,,,-99.99,1.0,HOBO +U30 +Weather +,2013-05-01 03:20:00,
2013-04-30 20:25:00,55.3,46.3,29.50,SW,236,6.7,10.7,71,0.00,,,-99.99,1.0,HOBO +U30 +Weather +,2013-05-01 03:25:00,
2013-04-30 20:30:00,55.6,46.5,29.50,SW,233,6.3,11.2,71,0.00,,,-99.99,1.0,HOBO +U30 +Weather +,2013-05-01 03:30:00,
2013-04-30 20:35:00,55.7,46.4,29.50,SW,229,5.6,10.1,71,0.00,,,-99.99,1.0,HOBO +U30 +Weather +,2013-05-01 03:35:00,
2013-04-30 20:40:00,55.9,46.3,29.50,SW,229,6.3,10.7,70,0.00,,,-99.99,1.0,HOBO +U30 +Weather +,2013-05-01 03:40:00,
2013-04-30 20:45:00,56.2,46.5,29.50,SW,226,5.1,8.5,69,0.00,,,-99.99,1.0,HOBO +U30 +Weather +,2013-05-01 03:45:00,
2013-04-30 20:50:00,56.9,46.6,29.50,SW,230,4.0,6.3,68,0.00,,,-99.99,1.0,HOBO +U30 +Weather +,2013-05-01 03:50:00,
2013-04-30 20:55:00,57.5,46.1,29.50,SW,226,4.0,6.7,65,0.00,,,-99.99,1.0,HOBO +U30 +Weather +,2013-05-01 03:55:00,
2013-04-30 21:00:00,57.5,46.1,29.51,WNW,298,1.1,3.4,65,0.00,,,-99.99,1.0,HOBO +U30 +Weather +,2013-05-01 04:00:00,
2013-04-30 21:05:00,58.0,45.9,29.51,West,271,1.1,5.1,63,0.00,,,-99.99,1.0,HOBO +U30 +Weather +,2013-05-01 04:05:00,
2013-04-30 21:10:00,58.7,45.5,29.51,West,263,1.1,3.4,61,0.00,,,-99.99,1.0,HOBO +U30 +Weather +,2013-05-01 04:10:00,
2013-04-30 21:15:00,57.8,45.2,29.51,North,351,0.7,2.9,62,0.00,,,-99.99,1.0,HOBO +U30 +Weather +,2013-05-01 04:15:00,
2013-04-30 21:20:00,56.8,45.5,29.52,NNE,29,0.0,1.8,65,0.00,,,-99.99,1.0,HOBO +U30 +Weather +,2013-05-01 04:20:00,
2013-04-30 21:25:00,57.0,45.9,29.52,NNE,29,0.0,2.2,66,0.00,,,-99.99,1.0,HOBO +U30 +Weather +,2013-05-01 04:25:00,
2013-04-30 21:30:00,58.2,46.6,29.52,North,4,0.0,1.8,65,0.00,,,-99.99,1.0,HOBO +U30 +Weather +,2013-05-01 04:30:00,
2013-04-30 21:35:00,58.2,45.8,29.52,WNW,300,0.0,1.1,63,0.00,,,-99.99,1.0,HOBO +U30 +Weather +,2013-05-01 04:35:00,
2013-04-30 21:40:00,58.5,46.2,29.52,WNW,300,0.0,0.0,63,0.00,,,-99.99,1.0,HOBO +U30 +Weather +,2013-05-01 04:40:00,
2013-04-30 21:45:00,58.8,46.5,29.52,WNW,300,0.0,0.7,63,0.00,,,-99.99,1.0,HOBO +U30 +Weather +,2013-05-01 04:45:00,
2013-04-30 21:50:00,60.5,47.8,29.52,NW,320,0.0,2.2,62,0.00,,,-99.99,1.0,HOBO +U30 +Weather +,2013-05-01 04:50:00,
2013-04-30 21:55:00,61.8,47.6,29.52,NW,320,0.0,4.5,59,0.00,,,-99.99,1.0,HOBO +U30 +Weather +,2013-05-01 04:55:00,
2013-04-30 22:00:00,62.6,47.3,29.52,NW,320,0.0,1.8,57,0.00,,,-99.99,1.0,HOBO +U30 +Weather +,2013-05-01 05:00:00,
2013-04-30 22:05:00,63.5,46.9,29.52,NNW,345,0.0,2.9,54,0.00,,,-99.99,1.0,HOBO +U30 +Weather +,2013-05-01 05:05:00,
2013-04-30 22:10:00,64.1,46.3,29.52,NNW,329,0.0,1.8,52,0.00,,,-99.99,1.0,HOBO +U30 +Weather +,2013-05-01 05:10:00,
2013-04-30 22:15:00,65.4,44.3,29.52,NNW,329,1.1,5.1,46,0.00,,,-99.99,1.0,HOBO +U30 +Weather +,2013-05-01 05:15:00,
2013-04-30 22:20:00,65.9,42.4,29.52,NNW,336,1.1,5.6,42,0.00,,,-99.99,1.0,HOBO +U30 +Weather +,2013-05-01 05:20:00,
2013-04-30 22:25:00,65.6,41.5,29.52,NNW,341,1.1,4.0,41,0.00,,,-99.99,1.0,HOBO +U30 +Weather +,2013-05-01 05:25:00,
2013-04-30 22:30:00,64.9,41.3,29.52,NNW,345,0.7,2.9,42,0.00,,,-99.99,1.0,HOBO +U30 +Weather +,2013-05-01 05:30:00,
2013-04-30 22:35:00,64.9,41.2,29.52,NNW,345,0.7,4.0,41,0.00,,,-99.99,1.0,HOBO +U30 +Weather +,2013-05-01 05:35:00,
2013-04-30 22:40:00,65.1,40.8,29.52,North,350,1.1,5.1,41,0.00,,,-99.99,1.0,HOBO +U30 +Weather +,2013-05-01 05:40:00,
2013-04-30 22:45:00,65.1,40.0,29.52,North,352,1.8,6.7,39,0.00,,,-99.99,1.0,HOBO +U30 +Weather +,2013-05-01 05:45:00,
2013-04-30 22:50:00,64.5,40.0,29.52,North,355,1.1,4.0,40,0.00,,,-99.99,1.0,HOBO +U30 +Weather +,2013-05-01 05:50:00,
2013-04-30 22:55:00,64.1,40.0,29.53,NNW,348,0.7,5.1,41,0.00,,,-99.99,1.0,HOBO +U30 +Weather +,2013-05-01 05:55:00,
2013-04-30 23:00:00,63.7,40.0,29.53,North,3,0.7,4.0,41,0.00,,,-99.99,1.0,HOBO +U30 +Weather +,2013-05-01 06:00:00,
2013-04-30 23:05:00,63.7,40.0,29.53,North,350,0.7,4.5,41,0.00,,,-99.99,1.0,HOBO +U30 +Weather +,2013-05-01 06:05:00,
2013-04-30 23:10:00,63.4,39.7,29.52,NNW,345,0.7,4.0,41,0.00,,,-99.99,1.0,HOBO +U30 +Weather +,2013-05-01 06:10:00,
2013-04-30 23:15:00,64.1,38.8,29.52,NNW,345,1.1,5.6,39,0.00,,,-99.99,1.0,HOBO +U30 +Weather +,2013-05-01 06:15:00,
2013-04-30 23:20:00,64.0,37.5,29.52,North,350,1.1,5.1,37,0.00,,,-99.99,1.0,HOBO +U30 +Weather +,2013-05-01 06:20:00,
2013-04-30 23:25:00,64.1,37.1,29.52,NW,323,0.7,4.5,36,0.00,,,-99.99,1.0,HOBO +U30 +Weather +,2013-05-01 06:25:00,
2013-04-30 23:30:00,63.7,36.5,29.53,NW,309,0.7,6.3,36,0.00,,,-99.99,1.0,HOBO +U30 +Weather +,2013-05-01 06:30:00,
2013-04-30 23:35:00,63.5,36.4,29.52,NNW,331,0.7,4.0,36,0.00,,,-99.99,1.0,HOBO +U30 +Weather +,2013-05-01 06:35:00,
2013-04-30 23:40:00,64.3,35.6,29.53,NNW,337,1.8,5.1,34,0.00,,,-99.99,1.0,HOBO +U30 +Weather +,2013-05-01 06:40:00,
2013-04-30 23:45:00,64.6,34.4,29.53,NNW,343,1.8,6.7,32,0.00,,,-99.99,1.0,HOBO +U30 +Weather +,2013-05-01 06:45:00,
2013-04-30 23:50:00,64.9,33.7,29.53,NNW,344,1.8,5.1,31,0.00,,,-99.99,1.0,HOBO +U30 +Weather +,2013-05-01 06:50:00,
2013-04-30 23:55:00,65.1,33.0,29.53,NNW,338,1.8,5.1,30,0.00,,,-99.99,1.0,HOBO +U30 +Weather +,2013-05-01 06:55:00,